When you browse on this site, cookies collect data to enhance your experience and personalize the content and advertising you see.
Visit our Privacy Policy to learn more. By continuing to use the site, you agree to this use of cookies and data.
EN

Hourly Weather Pravoberezhnyy

Today, 21 September, Monday

Time Temperature Precipitation Wind Pressure Humidity
00:00 +12°C° 0 mm 4 mps 763 mmHg 57%
01:00 +11°C° 0 mm 4 mps 763 mmHg 58%
02:00 +11°C° 0 mm 3 mps 763 mmHg 58%
03:00 +10°C° 0 mm 3 mps 764 mmHg 59%
04:00 +10°C° 0 mm 3 mps 764 mmHg 59%
05:00 +9°C° 0 mm 3 mps 764 mmHg 59%
06:00 +9°C° 0 mm 3 mps 765 mmHg 59%
07:00 +11°C° 0 mm 3 mps 765 mmHg 52%
08:00 +14°C° 0 mm 3 mps 765 mmHg 44%
09:00 +17°C° 0 mm 4 mps 765 mmHg 37%
10:00 +18°C° 0 mm 3 mps 765 mmHg 33%
11:00 +19°C° 0 mm 3 mps 764 mmHg 29%
12:00 +21°C° 0 mm 2 mps 764 mmHg 26%
13:00 +21°C° 0 mm 2 mps 764 mmHg 24%
14:00 +23°C° 0 mm 2 mps 764 mmHg 22%
15:00 +23°C° 0 mm 2 mps 763 mmHg 20%
16:00 +21°C° 0 mm 2 mps 763 mmHg 22%
17:00 +20°C° 0 mm 1 mps 763 mmHg 25%
18:00 +19°C° 0 mm 1 mps 763 mmHg 27%
19:00 +17°C° 0 mm 2 mps 763 mmHg 28%
20:00 +16°C° 0 mm 2 mps 763 mmHg 30%
21:00 +14°C° 0 mm 3 mps 764 mmHg 31%
22:00 +13°C° 0 mm 3 mps 764 mmHg 33%
23:00 +13°C° 0 mm 3 mps 764 mmHg 34%

Tomorrow, 22 September, Tuesday

Time Temperature Precipitation Wind Pressure Humidity
00:00 +12°C° 0 mm 3 mps 764 mmHg 36%
01:00 +12°C° 0 mm 3 mps 764 mmHg 38%
02:00 +13°C° 0 mm 2 mps 764 mmHg 39%
03:00 +12°C° 0 mm 2 mps 764 mmHg 41%
04:00 +12°C° 0 mm 2 mps 764 mmHg 43%
05:00 +12°C° 0 mm 2 mps 764 mmHg 45%
06:00 +10°C° 0 mm 2 mps 764 mmHg 47%
07:00 +14°C° 0 mm 2 mps 764 mmHg 43%
08:00 +17°C° 0 mm 2 mps 765 mmHg 40%
09:00 +19°C° 0 mm 2 mps 765 mmHg 37%
10:00 +21°C° 0 mm 2 mps 765 mmHg 33%
11:00 +23°C° 0 mm 2 mps 764 mmHg 30%
12:00 +25°C° 0 mm 2 mps 764 mmHg 27%
13:00 +25°C° 0 mm 2 mps 764 mmHg 26%
14:00 +26°C° 0 mm 2 mps 764 mmHg 24%
15:00 +26°C° 0 mm 2 mps 763 mmHg 23%
16:00 +24°C° 0 mm 2 mps 763 mmHg 26%
17:00 +23°C° 0 mm 1 mps 763 mmHg 28%
18:00 +21°C° 0 mm 1 mps 763 mmHg 31%
19:00 +19°C° 0 mm 2 mps 763 mmHg 30%
20:00 +18°C° 0 mm 2 mps 764 mmHg 30%
21:00 +17°C° 0 mm 3 mps 764 mmHg 29%
22:00 +17°C° 0 mm 3 mps 764 mmHg 31%
23:00 +16°C° 0 mm 3 mps 763 mmHg 32%

Day after tomorrow, 23 September, Wednesday

Time Temperature Precipitation Wind Pressure Humidity
00:00 +16°C° 0 mm 3 mps 763 mmHg 33%
01:00 +14°C° 0 mm 3 mps 763 mmHg 35%
02:00 +15°C° 0 mm 2 mps 763 mmHg 37%
03:00 +15°C° 0 mm 2 mps 763 mmHg 38%
04:00 +14°C° 0 mm 2 mps 763 mmHg 42%
05:00 +14°C° 0 mm 2 mps 763 mmHg 46%
06:00 +14°C° 0 mm 2 mps 763 mmHg 49%
07:00 +16°C° 0 mm 2 mps 763 mmHg 51%
08:00 +18°C° 0 mm 3 mps 763 mmHg 52%
09:00 +21°C° 0 mm 3 mps 763 mmHg 54%
10:00 +22°C° 0 mm 3 mps 763 mmHg 46%
11:00 +25°C° 0 mm 4 mps 763 mmHg 38%
12:00 +27°C° 0 mm 4 mps 762 mmHg 30%
13:00 +27°C° 0 mm 4 mps 762 mmHg 28%
14:00 +28°C° 0 mm 4 mps 761 mmHg 26%
15:00 +28°C° 0 mm 4 mps 761 mmHg 24%
16:00 +27°C° 0 mm 4 mps 761 mmHg 26%
17:00 +25°C° 0 mm 3 mps 761 mmHg 29%
18:00 +24°C° 0 mm 3 mps 761 mmHg 32%
19:00 +21°C° 0 mm 3 mps 761 mmHg 34%
20:00 +20°C° 0 mm 3 mps 761 mmHg 36%
21:00 +19°C° 0 mm 4 mps 761 mmHg 38%
22:00 +19°C° 0 mm 4 mps 761 mmHg 40%
23:00 +18°C° 0 mm 4 mps 761 mmHg 42%

24 September, Thursday

Time Temperature Precipitation Wind Pressure Humidity
00:00 +17°C° 0 mm 4 mps 760 mmHg 44%
01:00 +17°C° 0 mm 4 mps 760 mmHg 45%
02:00 +15°C° 0 mm 4 mps 760 mmHg 47%
03:00 +16°C° 0 mm 3 mps 760 mmHg 48%
04:00 +14°C° 0 mm 3 mps 761 mmHg 49%
05:00 +14°C° 0 mm 3 mps 761 mmHg 50%
06:00 +13°C° 0 mm 4 mps 761 mmHg 51%
07:00 +15°C° 0 mm 4 mps 761 mmHg 46%
08:00 +19°C° 0 mm 5 mps 761 mmHg 42%
09:00 +21°C° 0 mm 5 mps 761 mmHg 37%
10:00 +23°C° 0 mm 6 mps 761 mmHg 35%
11:00 +24°C° 0 mm 6 mps 760 mmHg 32%
12:00 +27°C° 0 mm 6 mps 760 mmHg 29%
13:00 +28°C° 0 mm 6 mps 760 mmHg 28%
14:00 +28°C° 0 mm 6 mps 760 mmHg 27%
15:00 +29°C° 0 mm 6 mps 759 mmHg 26%
16:00 +28°C° 0 mm 6 mps 759 mmHg 28%
17:00 +26°C° 0 mm 5 mps 759 mmHg 31%
18:00 +25°C° 0 mm 4 mps 759 mmHg 33%
19:00 +23°C° 0 mm 5 mps 759 mmHg 34%
20:00 +22°C° 0 mm 6 mps 760 mmHg 36%
21:00 +22°C° 0 mm 6 mps 760 mmHg 37%
22:00 +21°C° 0 mm 6 mps 760 mmHg 41%
23:00 +20°C° 0 mm 6 mps 760 mmHg 44%

25 September, Friday

Time Temperature Precipitation Wind Pressure Humidity
00:00 +19°C° 0 mm 5 mps 759 mmHg 47%
01:00 +17°C° 0 mm 5 mps 759 mmHg 49%
02:00 +17°C° 0 mm 5 mps 759 mmHg 51%
03:00 +16°C° 0 mm 5 mps 759 mmHg 53%
04:00 +16°C° 0 mm 5 mps 759 mmHg 54%
05:00 +15°C° 0 mm 5 mps 760 mmHg 55%
06:00 +15°C° 0 mm 5 mps 760 mmHg 56%
07:00 +17°C° 0 mm 6 mps 760 mmHg 50%
08:00 +20°C° 0 mm 7 mps 760 mmHg 44%
09:00 +22°C° 0 mm 7 mps 760 mmHg 38%
10:00 +24°C° 0 mm 8 mps 759 mmHg 32%
11:00 +28°C° 0 mm 8 mps 759 mmHg 27%
12:00 +31°C° 0 mm 8 mps 759 mmHg 21%
13:00 +31°C° 0 mm 8 mps 758 mmHg 21%
14:00 +32°C° 0 mm 8 mps 758 mmHg 21%
15:00 +32°C° 0 mm 8 mps 758 mmHg 20%
16:00 +30°C° 0 mm 7 mps 758 mmHg 21%
17:00 +29°C° 0 mm 7 mps 757 mmHg 21%
18:00 +27°C° 0 mm 6 mps 757 mmHg 22%
19:00 +26°C° 0 mm 6 mps 758 mmHg 25%
20:00 +24°C° 0 mm 6 mps 758 mmHg 28%
21:00 +23°C° 0 mm 7 mps 758 mmHg 30%
22:00 +22°C° 0 mm 7 mps 758 mmHg 34%
23:00 +21°C° 0 mm 7 mps 758 mmHg 37%

26 September, Saturday

Time Temperature Precipitation Wind Pressure Humidity
00:00 +20°C° 0 mm 7 mps 758 mmHg 40%
01:00 +19°C° 0 mm 6 mps 758 mmHg 41%
02:00 +19°C° 0 mm 6 mps 758 mmHg 42%
03:00 +17°C° 0 mm 6 mps 758 mmHg 42%
04:00 +17°C° 0 mm 6 mps 758 mmHg 47%
05:00 +17°C° 0 mm 6 mps 758 mmHg 51%
06:00 +16°C° 0 mm 6 mps 758 mmHg 55%
07:00 +18°C° 0 mm 7 mps 758 mmHg 49%
08:00 +21°C° 0 mm 8 mps 759 mmHg 43%
09:00 +23°C° 0 mm 8 mps 759 mmHg 36%
10:00 +26°C° 0 mm 9 mps 758 mmHg 33%
11:00 +27°C° 0 mm 9 mps 758 mmHg 30%
12:00 +29°C° 0 mm 9 mps 758 mmHg 27%
13:00 +29°C° 0 mm 9 mps 758 mmHg 27%
14:00 +29°C° 0 mm 10 mps 758 mmHg 27%
15:00 +29°C° 0 mm 10 mps 758 mmHg 26%
16:00 +27°C° 0 mm 9 mps 758 mmHg 28%
17:00 +26°C° 0 mm 8 mps 758 mmHg 30%
18:00 +24°C° 0 mm 7 mps 759 mmHg 32%
19:00 +22°C° 0 mm 7 mps 759 mmHg 35%
20:00 +21°C° 0 mm 7 mps 760 mmHg 39%
21:00 +20°C° 0 mm 8 mps 760 mmHg 42%
22:00 +18°C° 0 mm 7 mps 760 mmHg 45%
23:00 +17°C° 0 mm 7 mps 760 mmHg 48%
Show more